| time (UTC) | temp F | wind direction | speed MPH | gust MPH | rain 1hr in | rain 24hr in | rain mn in | humidity % | barometer mb |
| 20260903202056 | 56 | 5 | 4.0 | 13.0 | 0.00 | 0.00 | 0.00 | 56 | 1017.4 |
| 20260903201606 | 57 | 15 | 3.0 | 12.0 | 0.00 | 0.00 | 0.00 | 54 | 1017.5 |
| 20260903201057 | 57 | 15 | 3.0 | 11.0 | 0.00 | 0.00 | 0.00 | 54 | 1017.6 |
| 20260903200556 | 57 | 16 | 3.0 | 11.0 | 0.00 | 0.00 | 0.00 | 54 | 1017.7 |
| 20260903200108 | 57 | 16 | 1.0 | 12.0 | 0.00 | 0.00 | 0.00 | 54 | 1017.6 |
| 20260903195557 | 57 | 15 | 3.0 | 12.0 | 0.00 | 0.00 | 0.00 | 54 | 1017.6 |
| 20260903195057 | 57 | 15 | 2.0 | 12.0 | 0.00 | 0.00 | 0.00 | 54 | 1017.9 |
| 20260903194606 | 57 | 12 | 1.0 | 8.0 | 0.00 | 0.00 | 0.00 | 53 | 1017.9 |
| 20260903194056 | 57 | 15 | 2.0 | 8.0 | 0.00 | 0.00 | 0.00 | 54 | 1017.7 |
| 20260903193556 | 57 | 9 | 3.0 | 8.0 | 0.00 | 0.00 | 0.00 | 53 | 1018.1 |
| 20260903193103 | 57 | 15 | 2.0 | 8.0 | 0.00 | 0.00 | 0.00 | 52 | 1018.0 |
| 20260903192557 | 57 | 15 | 1.0 | 9.0 | 0.00 | 0.00 | 0.00 | 54 | 1018.0 |
| 20260903192058 | 57 | 5 | 2.0 | 9.0 | 0.00 | 0.00 | 0.00 | 51 | 1018.1 |
| 20260903191606 | 57 | 15 | 3.0 | 9.0 | 0.00 | 0.00 | 0.00 | 52 | 1018.1 |
| 20260903191056 | 57 | 15 | 2.0 | 8.0 | 0.00 | 0.00 | 0.00 | 51 | 1018.2 |
| 20260903190556 | 57 | 15 | 3.0 | 9.0 | 0.00 | 0.00 | 0.00 | 51 | 1018.2 |
| 20260903190104 | 57 | 16 | 3.0 | 14.0 | 0.00 | 0.00 | 0.00 | 52 | 1018.3 |
| 20260903185556 | 57 | 15 | 4.0 | 14.0 | 0.00 | 0.00 | 0.00 | 51 | 1018.2 |
| 20260903185056 | 57 | 15 | 2.0 | 12.0 | 0.00 | 0.00 | 0.00 | 51 | 1018.3 |
| 20260903184601 | 57 | 9 | 3.0 | 12.0 | 0.00 | 0.00 | 0.00 | 50 | 1018.4 |
| 20260903184056 | 58 | 15 | 4.0 | 12.0 | 0.00 | 0.00 | 0.00 | 49 | 1018.4 |
| 20260903183556 | 58 | 15 | 2.0 | 12.0 | 0.00 | 0.00 | 0.00 | 48 | 1018.4 |
| 20260903183104 | 59 | 15 | 2.0 | 7.0 | 0.00 | 0.00 | 0.00 | 49 | 1018.4 |
| 20260903182557 | 60 | 15 | 2.0 | 9.0 | 0.00 | 0.00 | 0.00 | 46 | 1018.4 |
| 20260903182056 | 60 | 360 | 3.0 | 9.0 | 0.00 | 0.00 | 0.00 | 47 | 1018.4 |
| 20260903181603 | 60 | 17 | 4.0 | 10.0 | 0.00 | 0.00 | 0.00 | 45 | 1018.5 |
| 20260903181056 | 60 | 16 | 2.0 | 10.0 | 0.00 | 0.00 | 0.00 | 47 | 1018.3 |
| 20260903180557 | 59 | 11 | 3.0 | 11.0 | 0.00 | 0.00 | 0.00 | 47 | 1018.4 |
| 20260903180105 | 59 | 15 | 3.0 | 11.0 | 0.00 | 0.00 | 0.00 | 45 | 1018.5 |
| 20260903175557 | 59 | 15 | 4.0 | 10.0 | 0.00 | 0.00 | 0.00 | 46 | 1018.3 |
| 20260903175056 | 59 | 15 | 3.0 | 11.0 | 0.00 | 0.00 | 0.00 | 47 | 1018.3 |
| 20260903174600 | 58 | 13 | 2.0 | 14.0 | 0.00 | 0.00 | 0.00 | 48 | 1018.3 |
| 20260903174055 | 57 | 15 | 3.0 | 14.0 | 0.00 | 0.00 | 0.00 | 47 | 1018.4 |
| 20260903173557 | 57 | 15 | 4.0 | 14.0 | 0.00 | 0.00 | 0.00 | 49 | 1018.5 |
| 20260903173103 | 57 | 16 | 3.0 | 11.0 | 0.00 | 0.00 | 0.00 | 48 | 1018.4 |
| 20260903172556 | 57 | 14 | 3.0 | 11.0 | 0.00 | 0.00 | 0.00 | 48 | 1018.3 |
| 20260903172055 | 57 | 16 | 2.0 | 11.0 | 0.00 | 0.00 | 0.00 | 48 | 1018.5 |
| 20260903171617 | 56 | 16 | 3.0 | 11.0 | 0.00 | 0.00 | 0.00 | 49 | 1018.4 |
| 20260903171056 | 56 | 15 | 1.0 | 10.0 | 0.00 | 0.00 | 0.00 | 50 | 1018.5 |
| 20260903170557 | 56 | 121 | 2.0 | 10.0 | 0.00 | 0.00 | 0.00 | 50 | 1018.7 |
| 20260903170107 | 55 | 15 | 3.0 | 10.0 | 0.00 | 0.00 | 0.00 | 48 | 1018.7 |
| 20260903165556 | 55 | 15 | 3.0 | 10.0 | 0.00 | 0.00 | 0.00 | 51 | 1018.7 |
| 20260903165100 | 55 | 16 | 2.0 | 10.0 | 0.00 | 0.00 | 0.00 | 50 | 1018.6 |
| 20260903164618 | 55 | 9 | 3.0 | 9.0 | 0.00 | 0.00 | 0.00 | 51 | 1018.7 |
| 20260903164056 | 55 | 15 | 3.0 | 9.0 | 0.00 | 0.00 | 0.00 | 49 | 1018.7 |
| 20260903163556 | 55 | 15 | 2.0 | 10.0 | 0.00 | 0.00 | 0.00 | 49 | 1018.7 |
| 20260903163102 | 55 | 9 | 3.0 | 14.0 | 0.00 | 0.00 | 0.00 | 49 | 1018.8 |
| 20260903162557 | 54 | 16 | 2.0 | 14.0 | 0.00 | 0.00 | 0.00 | 49 | 1018.7 |
| 20260903162057 | 54 | 13 | 2.0 | 13.0 | 0.00 | 0.00 | 0.00 | 47 | 1018.7 |
| 20260903161603 | 54 | 5 | 2.0 | 9.0 | 0.00 | 0.00 | 0.00 | 48 | 1018.8 |
| 20260903161056 | 54 | 15 | 2.0 | 7.0 | 0.00 | 0.00 | 0.00 | 46 | 1018.6 |
| 20260903160556 | 54 | 9 | 2.0 | 9.0 | 0.00 | 0.00 | 0.00 | 46 | 1018.8 |
| 20260903160128 | 54 | 15 | 2.0 | 9.0 | 0.00 | 0.00 | 0.00 | 45 | 1018.7 |
| 20260903155602 | 53 | 9 | 2.0 | 9.0 | 0.00 | 0.00 | 0.00 | 45 | 1019.0 |
| 20260903155056 | 53 | 16 | 2.0 | 9.0 | 0.00 | 0.00 | 0.00 | 46 | 1019.0 |
| 20260903154610 | 53 | 5 | 1.0 | 7.0 | 0.00 | 0.00 | 0.00 | 45 | 1019.0 |
| 20260903154059 | 53 | 15 | 2.0 | 8.0 | 0.00 | 0.00 | 0.00 | 44 | 1019.0 |
| 20260903153556 | 53 | 5 | 1.0 | 8.0 | 0.00 | 0.00 | 0.00 | 43 | 1019.2 |
| 20260903153108 | 53 | 15 | 3.0 | 8.0 | 0.00 | 0.00 | 0.00 | 42 | 1019.2 |
| 20260903152556 | 53 | 15 | 2.0 | 8.0 | 0.00 | 0.00 | 0.00 | 43 | 1019.3 |
| 20260903152057 | 53 | 15 | 2.0 | 8.0 | 0.00 | 0.00 | 0.00 | 42 | 1019.1 |
| 20260903151608 | 53 | 15 | 3.0 | 8.0 | 0.00 | 0.00 | 0.00 | 40 | 1019.1 |
| 20260903151057 | 53 | 13 | 2.0 | 9.0 | 0.00 | 0.00 | 0.00 | 41 | 1019.1 |
| 20260903150557 | 53 | 9 | 2.0 | 9.0 | 0.00 | 0.00 | 0.00 | 41 | 1019.1 |
| 20260903150111 | 53 | 15 | 2.0 | 7.0 | 0.00 | 0.00 | 0.00 | 39 | 1019.1 |
| 20260903145558 | 53 | 16 | 1.0 | 8.0 | 0.00 | 0.00 | 0.00 | 41 | 1019.0 |
| 20260903145056 | 52 | 9 | 2.0 | 12.0 | 0.00 | 0.00 | 0.00 | 40 | 1019.1 |
| 20260903144607 | 52 | 15 | 3.0 | 12.0 | 0.00 | 0.00 | 0.00 | 40 | 1018.8 |
| 20260903144059 | 52 | 14 | 2.0 | 13.0 | 0.00 | 0.00 | 0.00 | 40 | 1018.8 |
| 20260903143558 | 52 | 5 | 2.0 | 13.0 | 0.00 | 0.00 | 0.00 | 40 | 1018.9 |
| 20260903143112 | 52 | 15 | 2.0 | 13.0 | 0.00 | 0.00 | 0.00 | 38 | 1018.9 |
| 20260903142556 | 52 | 16 | 1.0 | 7.0 | 0.00 | 0.00 | 0.00 | 38 | 1018.7 |
| 20260903142056 | 52 | 15 | 2.0 | 10.0 | 0.00 | 0.00 | 0.00 | 37 | 1018.7 |
| 20260903141614 | 52 | 13 | 3.0 | 10.0 | 0.00 | 0.00 | 0.00 | 38 | 1018.7 |
| 20260903141057 | 52 | 15 | 2.0 | 9.0 | 0.00 | 0.00 | 0.00 | 37 | 1018.8 |
| 20260903140557 | 52 | 16 | 2.0 | 10.0 | 0.00 | 0.00 | 0.00 | 37 | 1018.8 |
| 20260903140107 | 52 | 15 | 2.0 | 10.0 | 0.00 | 0.00 | 0.00 | 38 | 1018.7 |
| 20260903135556 | 51 | 16 | 2.0 | 10.0 | 0.00 | 0.00 | 0.00 | 38 | 1018.7 |
| 20260903135056 | 51 | 15 | 2.0 | 9.0 | 0.00 | 0.00 | 0.00 | 37 | 1018.6 |
| 20260903134605 | 51 | 15 | 3.0 | 8.0 | 0.00 | 0.00 | 0.00 | 37 | 1018.5 |
| 20260903134056 | 51 | 15 | 3.0 | 7.0 | 0.00 | 0.00 | 0.00 | 40 | 1018.5 |
| 20260903133556 | 51 | 15 | 2.0 | 7.0 | 0.00 | 0.00 | 0.00 | 40 | 1018.6 |
| 20260903133108 | 51 | 15 | 2.0 | 10.0 | 0.00 | 0.00 | 0.00 | 40 | 1018.4 |
| 20260903132556 | 51 | 16 | 3.0 | 10.0 | 0.00 | 0.00 | 0.00 | 40 | 1018.4 |
| 20260903132055 | 51 | 15 | 2.0 | 7.0 | 0.00 | 0.00 | 0.00 | 43 | 1018.4 |
| 20260903131606 | 51 | 15 | 2.0 | 9.0 | 0.00 | 0.00 | 0.00 | 45 | 1018.3 |
| 20260903131056 | 51 | 0 | 2.0 | 9.0 | 0.00 | 0.00 | 0.00 | 44 | 1018.5 |
| 20260903130557 | 51 | 5 | 2.0 | 10.0 | 0.00 | 0.00 | 0.00 | 45 | 1018.6 |
| 20260903130105 | 51 | 16 | 2.0 | 11.0 | 0.00 | 0.00 | 0.00 | 45 | 1018.6 |
| 20260903125556 | 51 | 5 | 2.0 | 11.0 | 0.00 | 0.00 | 0.00 | 45 | 1018.5 |
| 20260903125100 | 51 | 15 | 2.0 | 11.0 | 0.00 | 0.00 | 0.00 | 47 | 1018.4 |
| 20260903124607 | 51 | 16 | 2.0 | 9.0 | 0.00 | 0.00 | 0.00 | 46 | 1018.6 |
| 20260903124056 | 51 | 16 | 2.0 | 7.0 | 0.00 | 0.00 | 0.00 | 47 | 1018.5 |
| 20260903123556 | 51 | 16 | 0.0 | 7.0 | 0.00 | 0.00 | 0.00 | 50 | 1018.5 |
| 20260903123105 | 51 | 15 | 1.0 | 8.0 | 0.00 | 0.00 | 0.00 | 51 | 1018.6 |
| 20260903122556 | 51 | 16 | 2.0 | 8.0 | 0.00 | 0.00 | 0.00 | 49 | 1018.6 |
| 20260903122056 | 50 | 15 | 1.0 | 8.0 | 0.00 | 0.00 | 0.00 | 51 | 1018.7 |
| 20260903121600 | 51 | 15 | 0.0 | 7.0 | 0.00 | 0.00 | 0.00 | 52 | 1018.8 |
| 20260903121056 | 51 | 16 | 1.0 | 7.0 | 0.00 | 0.00 | 0.00 | 52 | 1018.7 |
| 20260903120556 | 51 | 15 | 1.0 | 5.0 | 0.00 | 0.00 | 0.00 | 51 | 1018.9 |
| 20260903120107 | 51 | 360 | 1.0 | 6.0 | 0.00 | 0.00 | 0.00 | 53 | 1018.9 |
| 20260903115555 | 51 | 5 | 0.0 | 7.0 | 0.00 | 0.00 | 0.00 | 53 | 1018.9 |
| 20260903115056 | 51 | 0 | 2.0 | 7.0 | 0.00 | 0.00 | 0.00 | 52 | 1019.0 |
| 20260903114605 | 51 | 0 | 0.0 | 4.0 | 0.00 | 0.00 | 0.00 | 55 | 1019.0 |
| 20260903114056 | 51 | 5 | 1.0 | 7.0 | 0.00 | 0.00 | 0.00 | 54 | 1019.2 |
| 20260903113556 | 51 | 15 | 0.0 | 9.0 | 0.00 | 0.00 | 0.00 | 54 | 1019.0 |
| 20260903113102 | 50 | 15 | 1.0 | 9.0 | 0.00 | 0.00 | 0.00 | 54 | 1019.2 |
| 20260903112557 | 51 | 0 | 2.0 | 9.0 | 0.00 | 0.00 | 0.00 | 55 | 1019.2 |
| 20260903112056 | 50 | 0 | 2.0 | 8.0 | 0.00 | 0.00 | 0.00 | 55 | 1019.2 |
| 20260903111604 | 51 | 10 | 1.0 | 5.0 | 0.00 | 0.00 | 0.00 | 56 | 1019.2 |
| 20260903111059 | 51 | 0 | 1.0 | 5.0 | 0.00 | 0.00 | 0.00 | 56 | 1019.3 |
| 20260903110556 | 51 | 5 | 2.0 | 5.0 | 0.00 | 0.00 | 0.00 | 54 | 1019.3 |
| 20260903110104 | 51 | 15 | 0.0 | 5.0 | 0.00 | 0.00 | 0.00 | 55 | 1019.5 |
| 20260903105556 | 51 | 15 | 0.0 | 10.0 | 0.00 | 0.00 | 0.00 | 56 | 1019.5 |
| 20260903105056 | 51 | 14 | 1.0 | 10.0 | 0.00 | 0.00 | 0.00 | 54 | 1019.3 |
| 20260903104607 | 51 | 0 | 0.0 | 4.0 | 0.00 | 0.00 | 0.00 | 55 | 1019.4 |
| 20260903104056 | 51 | 5 | 1.0 | 4.0 | 0.00 | 0.00 | 0.00 | 54 | 1019.5 |
| 20260903103555 | 51 | 15 | 0.0 | 2.0 | 0.00 | 0.00 | 0.00 | 56 | 1019.5 |
| 20260903103103 | 51 | 360 | 0.0 | 4.0 | 0.00 | 0.00 | 0.00 | 54 | 1019.5 |
| 20260903102559 | 51 | 16 | 0.0 | 4.0 | 0.00 | 0.00 | 0.00 | 54 | 1019.4 |
| 20260903102056 | 51 | 9 | 0.0 | 7.0 | 0.00 | 0.00 | 0.00 | 56 | 1019.5 |
| 20260903101611 | 51 | 15 | 0.0 | 8.0 | 0.00 | 0.00 | 0.00 | 55 | 1019.5 |
| 20260903101059 | 51 | 15 | 1.0 | 11.0 | 0.00 | 0.00 | 0.00 | 55 | 1019.5 |
| 20260903100556 | 51 | 16 | 3.0 | 11.0 | 0.00 | 0.00 | 0.00 | 55 | 1019.5 |
| 20260903100109 | 51 | 360 | 2.0 | 9.0 | 0.00 | 0.00 | 0.00 | 56 | 1019.5 |
| 20260903095555 | 51 | 16 | 1.0 | 9.0 | 0.00 | 0.00 | 0.00 | 56 | 1019.4 |
| 20260903095056 | 51 | 5 | 1.0 | 9.0 | 0.00 | 0.00 | 0.00 | 56 | 1019.4 |
| 20260903094607 | 51 | 5 | 2.0 | 10.0 | 0.00 | 0.00 | 0.00 | 54 | 1019.4 |
| 20260903094057 | 51 | 15 | 3.0 | 10.0 | 0.00 | 0.00 | 0.00 | 55 | 1019.5 |
| 20260903093556 | 51 | 0 | 3.0 | 10.0 | 0.00 | 0.00 | 0.00 | 55 | 1019.5 |
| 20260903093114 | 51 | 16 | 2.0 | 10.0 | 0.00 | 0.00 | 0.00 | 56 | 1019.6 |
| 20260903092556 | 51 | 15 | 3.0 | 10.0 | 0.00 | 0.00 | 0.00 | 55 | 1019.7 |
| 20260903092056 | 51 | 9 | 3.0 | 10.0 | 0.00 | 0.00 | 0.00 | 56 | 1019.7 |
| 20260903091607 | 51 | 360 | 2.0 | 11.0 | 0.00 | 0.00 | 0.00 | 54 | 1019.8 |
| 20260903091056 | 51 | 5 | 3.0 | 11.0 | 0.00 | 0.00 | 0.00 | 54 | 1019.9 |
| 20260903090556 | 51 | 15 | 3.0 | 19.0 | 0.00 | 0.00 | 0.00 | 54 | 1020.0 |
| 20260903090105 | 51 | 15 | 5.0 | 19.0 | 0.00 | 0.00 | 0.00 | 52 | 1020.0 |
| 20260903085557 | 52 | 9 | 3.0 | 18.0 | 0.00 | 0.00 | 0.00 | 54 | 1019.8 |
| 20260903085057 | 52 | 10 | 3.0 | 10.0 | 0.00 | 0.00 | 0.00 | 54 | 1020.1 |
| 20260903084602 | 52 | 15 | 3.0 | 12.0 | 0.00 | 0.00 | 0.00 | 53 | 1020.0 |
| 20260903084057 | 52 | 9 | 3.0 | 12.0 | 0.00 | 0.00 | 0.00 | 54 | 1020.0 |
| 20260903083557 | 52 | 15 | 3.0 | 9.0 | 0.00 | 0.00 | 0.00 | 53 | 1020.2 |
| 20260903083100 | 52 | 15 | 3.0 | 11.0 | 0.00 | 0.00 | 0.00 | 53 | 1020.2 |
| 20260903082556 | 52 | 15 | 3.0 | 11.0 | 0.00 | 0.00 | 0.00 | 51 | 1020.2 |
| 20260903082056 | 52 | 15 | 3.0 | 9.0 | 0.00 | 0.00 | 0.00 | 53 | 1020.0 |
| 20260903081603 | 52 | 16 | 2.0 | 9.0 | 0.00 | 0.00 | 0.00 | 53 | 1020.1 |
| 20260903081100 | 52 | 15 | 3.0 | 11.0 | 0.00 | 0.00 | 0.00 | 51 | 1019.9 |
| 20260903080556 | 52 | 15 | 4.0 | 11.0 | 0.00 | 0.00 | 0.00 | 51 | 1020.0 |
| 20260903080110 | 52 | 15 | 3.0 | 10.0 | 0.00 | 0.00 | 0.00 | 52 | 1020.2 |
| 20260903075600 | 52 | 5 | 2.0 | 12.0 | 0.00 | 0.00 | 0.00 | 54 | 1020.1 |
| 20260903075056 | 52 | 15 | 3.0 | 12.0 | 0.00 | 0.00 | 0.00 | 51 | 1020.2 |
| 20260903074600 | 52 | 15 | 3.0 | 10.0 | 0.00 | 0.00 | 0.00 | 53 | 1020.1 |
| 20260903074057 | 52 | 16 | 3.0 | 9.0 | 0.00 | 0.00 | 0.00 | 55 | 1020.3 |
| 20260903073556 | 52 | 15 | 2.0 | 9.0 | 0.00 | 0.00 | 0.00 | 54 | 1020.3 |
| 20260903073107 | 51 | 9 | 3.0 | 13.0 | 0.00 | 0.00 | 0.00 | 54 | 1020.2 |
| 20260903072557 | 51 | 15 | 3.0 | 13.0 | 0.00 | 0.00 | 0.00 | 54 | 1020.2 |
| 20260903072057 | 52 | 16 | 3.0 | 10.0 | 0.00 | 0.00 | 0.00 | 54 | 1020.2 |
| 20260903071611 | 52 | 5 | 3.0 | 10.0 | 0.00 | 0.00 | 0.00 | 53 | 1020.1 |
| 20260903071057 | 52 | 360 | 4.0 | 12.0 | 0.00 | 0.00 | 0.00 | 52 | 1020.3 |
| 20260903070556 | 52 | 9 | 5.0 | 12.0 | 0.00 | 0.00 | 0.00 | 54 | 1020.2 |
| 20260903070107 | 52 | 15 | 4.0 | 12.0 | 0.00 | 0.00 | 0.00 | 54 | 1020.0 |